Tracking 30298 objects as of 27-Apr-2025
HD Live streaming from Space Station
objects crossing your sky now

ONEWEB-0127

Track ONEWEB-0127 now!
10-day predictions
ONEWEB-0127 is classified as:


NORAD ID: 47273
Int'l Code: 2020-100R
Perigee: 1,219.4 km
Apogee: 1,222.3 km
Inclination: 87.9 °
Period: 109.7 minutes
Semi major axis: 7591 km
RCS: Unknown
Launch date: December 18, 2020
Source: United Kingdom (UK)
Launch site: VOSTOCHNY COSMODROME (VOSTO)
Your satellite tracking list
Your tracking list is empty




NASA's NSSDC Master Catalog

Two Line Element Set (TLE):
1 47273U 20100R   25116.14343560 -.00000371  00000-0 -10679-2 0  9995
2 47273  87.8863  73.6459 0001871  86.5513 273.5830 13.12444065210027
Source of the keplerian elements: AFSPC